Wind_Speed
11 8 8 5 8 10 11 11 16 13 14 14 14 12 13 15 12 8 8 6 9 10 11 11 9 7 7 7 8 8 8 9 11 12 14 16 17 18 20 21 23 26 27 29 31 33 34 34 34
14 14 6 3 15 7 17 16 20 15 13 8 11 2 6 6 5 8 9 10 13 13 14 14 11 9 8 10 13 15 16 18 17 17 17 18 19 20 21 22 24 25 25 27 31 32 35 35 36
14 14 11 13 18 17 18 27 12 22 13 5 4 2 6 3 7 13 12 11 11 11 12 12 12 13 14 13 15 18 20 19 19 20 23 25 26 25 25 26 27 28 29 30 31 33 35 34 35
12 11 19 19 15 19 22 28 17 17 15 7 4 5 7 3 4 9 10 8 6 9 10 9 9 11 13 16 17 20 20 20 19 20 21 23 25 26 28 29 30 31 33 34 34 33 33 36 39
7 7 10 14 21 22 27 30 17 16 9 3 5 8 8 4 8 9 7 5 7 9 10 11 13 16 16 17 21 22 21 19 17 17 19 21 21 24 26 27 30 32 34 36 37 37 37 40 40
12 10 12 13 22 25 27 31 14 8 4 6 8 5 8 8 7 8 8 11 14 13 14 16 18 20 21 22 21 20 19 19 19 20 21 21 22 23 23 25 26 28 30 32 36 38 41 40 39
6 5 10 10 18 21 25 28 19 6 3 8 5 7 10 9 8 9 10 13 13 14 14 15 19 21 23 23 19 18 18 18 19 21 22 22 23 24 27 29 29 30 30 30 31 31 32 37 39
3 8 9 10 16 17 17 22 19 7 3 5 6 8 11 11 11 10 11 12 14 13 13 15 18 21 22 21 21 21 21 19 18 18 19 19 21 24 27 31 34 36 37 38 38 38 37 36 33
3 4 6 7 19 18 14 15 14 12 7 5 5 7 11 10 10 12 14 14 14 15 16 18 22 22 18 17 16 16 15 18 21 20 18 21 24 25 29 33 37 41 43 44 45 45 42 39 37
6 9 6 5 18 17 16 14 13 8 3 3 4 8 13 14 12 15 18 19 18 19 21 22 23 23 22 18 17 15 13 15 19 24 25 27 30 31 32 32 34 38 42 47 49 47 47 46 43
9 11 8 2 17 11 12 10 12 9 8 7 8 10 12 12 16 16 15 16 19 20 24 28 29 26 22 18 18 18 15 17 20 24 28 30 31 32 34 35 38 40 42 44 46 48 47 47 48
7 11 11 11 5 5 6 5 7 10 10 10 10 11 13 15 12 12 12 13 14 20 24 28 30 28 24 21 20 21 21 23 26 30 31 32 34 36 38 40 42 44 43 41 41 43 46 48 48
3 8 9 5 4 6 6 6 4 5 8 12 14 14 15 13 12 14 17 18 21 21 22 27 30 31 26 22 21 20 21 24 27 30 30 32 35 37 41 43 45 47 46 41 39 39 43 45 46
5 9 7 8 7 10 12 11 5 4 8 14 14 16 18 17 19 22 24 25 26 25 25 29 30 29 24 22 22 21 24 27 30 33 34 33 34 37 40 44 47 48 45 42 40 38 36 39 44
14 11 9 14 15 12 7 10 9 8 8 12 14 18 22 22 25 27 28 28 27 28 28 29 31 30 26 23 23 22 26 28 32 34 36 37 37 38 42 44 46 45 40 38 36 36 34 33 33
17 19 14 18 18 8 5 7 10 12 10 11 14 18 21 24 29 30 31 28 28 29 29 29 28 28 27 25 25 25 27 28 32 35 37 38 39 39 43 45 45 43 38 36 36 32 32 32 32
24 21 20 22 22 8 8 3 9 12 10 12 13 15 19 22 28 31 32 29 27 28 31 29 30 29 28 27 28 28 29 30 32 34 37 39 40 41 44 44 43 42 37 35 34 34 34 35 36
17 19 20 22 21 18 8 7 4 8 9 12 13 15 16 21 26 28 30 27 22 25 30 29 30 30 29 29 29 30 31 31 32 35 38 40 40 41 43 43 43 40 36 35 34 34 37 37 39
16 19 23 14 10 10 11 4 12 8 9 12 15 18 16 18 22 25 26 23 21 22 29 28 30 29 29 30 31 31 32 32 32 35 37 39 41 42 43 42 42 41 37 35 35 37 37 36 38
24 24 19 19 9 7 10 6 16 19 18 20 22 24 18 17 20 26 24 23 23 23 27 29 30 29 29 29 32 32 31 31 32 35 37 40 42 43 43 43 42 42 40 37 38 40 40 40 41
27 25 21 17 16 17 17 13 12 22 26 26 30 27 16 16 23 27 23 21 22 25 29 28 31 30 30 30 30 33 33 32 33 36 39 41 42 42 43 43 42 43 41 38 39 41 40 40 41
27 20 22 20 15 19 24 26 18 21 24 28 34 25 20 19 21 23 21 21 22 24 28 29 31 32 31 32 32 33 35 35 36 39 42 41 41 41 43 43 43 42 43 38 39 42 40 38 34
28 18 18 18 21 24 28 33 30 28 29 34 26 30 28 19 18 25 20 20 21 23 28 29 30 33 34 35 36 35 36 37 38 40 41 41 42 43 43 43 43 42 42 38 39 43 41 38 32
27 25 23 23 25 29 28 31 28 25 26 32 43 46 30 28 15 22 18 18 19 21 25 29 32 33 36 37 36 37 37 37 38 40 41 41 42 44 43 43 41 42 41 38 37 42 41 36 33
33 29 25 28 27 22 25 25 20 25 28 32 44 44 24 22 14 18 14 16 18 21 24 28 31 33 34 36 34 35 36 38 39 40 41 41 40 41 42 41 40 41 40 39 36 40 42 37 33
30 29 21 21 21 18 26 25 20 24 26 32 28 35 26 18 16 16 13 15 20 22 24 25 28 30 32 34 35 36 36 38 38 39 40 40 38 40 40 40 37 40 40 40 36 38 41 37 32
29 23 29 26 24 25 29 24 25 24 22 30 32 29 21 20 21 17 14 15 21 22 23 24 26 29 30 34 35 36 36 38 38 38 39 38 38 39 39 39 37 39 39 40 37 36 40 38 33
25 19 23 25 27 27 29 27 25 24 25 25 27 30 28 24 25 20 16 16 20 23 22 23 25 29 32 35 35 34 35 36 37 38 38 39 39 38 38 38 38 37 37 39 39 36 38 37 33
26 25 20 27 33 31 29 27 23 25 24 20 26 32 27 32 26 20 18 17 21 23 22 24 28 31 32 33 34 34 34 35 37 37 37 38 38 37 37 37 36 35 35 37 37 36 36 38 34
24 23 13 26 27 29 32 31 26 27 30 24 25 23 32 31 26 19 17 20 21 22 24 27 30 31 31 32 33 33 34 35 37 36 37 37 38 36 36 36 34 34 36 35 37 35 34 36 34
Wind_Direction
137 141 156 208 170 28 41 17 31 359 313 298 311 346 353 346 356 5 4 1 12 16 13 9 10 28 39 31 17 3 346 327 313 302 297 290 288 287 282 277 274 275 270 270 271 268 265 264 262
104 70 118 199 130 99 34 29 20 5 315 266 290 351 348 2 345 25 11 21 26 18 20 12 7 4 356 357 350 347 342 332 321 313 304 295 287 283 279 278 275 274 273 273 272 273 269 268 270
133 104 106 141 91 74 43 27 52 39 71 92 140 94 55 1 58 55 39 41 36 28 19 1 349 337 325 319 326 327 325 313 306 300 301 299 297 293 285 281 278 275 274 273 275 274 272 263 266
160 92 96 120 87 54 34 25 34 28 45 57 143 108 83 325 56 31 40 36 18 17 15 10 355 322 307 307 314 314 311 309 305 303 299 297 294 291 291 286 280 276 274 273 272 274 273 268 267
147 167 114 97 71 48 35 18 59 41 41 60 99 91 81 56 41 2 11 7 354 349 347 351 346 339 326 317 321 322 324 323 319 317 309 307 303 298 300 293 289 288 283 280 277 272 269 263 274
125 129 141 77 60 47 34 29 41 36 45 91 82 56 25 27 36 18 353 2 358 351 349 344 339 333 325 319 317 317 313 312 314 318 318 321 320 318 308 300 298 295 293 288 281 275 273 272 268
158 52 109 61 53 50 30 32 41 53 59 74 73 2 4 34 18 9 355 356 1 354 350 345 338 332 329 324 323 317 313 318 321 323 321 325 324 317 309 305 297 290 286 282 282 282 280 274 270
77 41 166 58 56 40 31 29 37 47 40 69 16 6 9 12 17 9 355 349 342 342 338 336 327 327 324 318 323 326 324 321 320 321 321 323 317 311 305 299 293 287 282 280 279 278 279 276 274
167 352 174 68 74 52 39 47 36 36 33 29 19 9 8 16 3 351 349 343 344 332 329 331 331 328 326 321 323 325 329 321 322 318 321 316 308 306 297 290 288 288 286 283 279 275 273 270 267
259 219 167 99 87 48 32 21 13 14 59 22 34 24 20 16 6 358 338 332 335 332 330 329 332 340 333 333 331 333 331 322 314 314 317 311 306 305 300 299 295 289 285 282 279 276 273 269 265
258 207 189 185 102 51 17 356 348 344 6 351 7 22 16 9 5 348 336 326 325 322 326 339 341 338 338 336 336 337 336 327 323 323 326 318 316 315 315 314 307 301 294 284 278 275 272 267 264
205 152 194 150 170 3 3 343 355 343 346 339 5 10 8 0 351 341 328 329 328 334 340 338 340 340 340 341 338 339 337 338 332 332 329 324 323 322 319 316 311 308 302 294 283 274 270 269 268
195 295 230 199 234 357 285 337 10 3 341 346 353 352 355 349 331 334 341 346 348 347 341 339 342 341 338 337 336 334 331 330 333 333 331 329 326 326 321 317 315 311 306 298 292 286 274 269 266
184 237 254 257 290 332 302 329 348 345 346 335 355 349 344 345 343 340 342 346 345 340 343 343 341 339 333 330 330 332 330 331 334 334 334 329 327 324 321 319 318 316 309 301 295 290 285 272 266
211 216 236 272 262 277 284 310 324 329 324 334 354 356 353 350 346 345 342 347 340 340 342 343 340 336 332 328 330 330 329 332 334 334 332 329 325 323 321 321 321 320 313 308 300 296 287 281 274
230 245 241 257 273 275 277 357 304 299 324 340 358 6 3 356 348 342 338 341 337 337 337 340 339 333 330 329 331 327 324 329 332 332 330 329 326 323 322 322 324 322 316 309 304 297 289 288 282
219 233 257 273 280 273 250 293 313 293 337 352 359 13 8 357 350 339 338 340 337 334 334 341 340 334 332 330 330 325 324 326 330 329 330 332 330 328 326 325 325 324 320 320 312 302 293 288 283
234 240 257 272 293 245 227 285 276 273 331 327 336 352 0 350 347 336 331 330 331 331 331 341 340 334 330 329 330 325 322 323 329 330 333 333 333 330 328 328 327 326 323 325 321 315 306 295 286
211 231 236 258 111 142 240 260 325 279 320 310 306 334 353 353 354 333 325 325 332 332 331 343 340 332 330 330 327 326 322 323 326 330 331 332 332 332 332 332 329 329 325 324 325 323 317 306 298
228 238 249 250 296 272 276 321 322 326 316 297 301 316 310 336 354 345 329 332 335 340 330 341 338 331 329 328 324 324 322 322 323 326 327 331 332 332 333 334 333 333 328 325 326 323 321 315 306
225 240 251 266 292 293 295 288 308 307 313 318 308 311 303 312 350 347 334 331 335 342 334 339 334 329 327 324 324 324 323 323 323 327 328 330 328 330 332 337 335 335 332 327 328 328 326 322 316
224 239 250 258 263 290 284 285 282 287 294 292 296 296 309 305 320 345 334 329 339 336 334 336 330 327 326 323 325 323 321 322 325 325 329 330 330 330 331 336 339 336 337 331 332 334 333 331 330
229 222 246 246 251 267 273 277 281 294 282 283 271 295 294 270 293 329 327 336 331 336 331 331 330 329 327 327 324 322 321 323 326 326 328 331 334 334 333 334 339 339 339 334 335 339 339 338 336
244 224 234 241 255 263 275 274 291 286 289 297 296 317 277 249 283 314 322 334 323 333 330 331 333 330 330 325 323 322 323 326 326 328 330 331 335 337 335 335 338 341 340 339 338 341 343 341 340
232 242 240 243 256 279 279 273 280 288 311 326 325 319 306 230 302 310 322 329 331 331 331 334 332 331 331 324 324 325 327 331 333 333 334 335 338 339 336 336 338 342 342 342 340 342 346 345 342
240 247 255 250 255 266 271 270 268 289 321 340 329 332 8 257 314 313 327 329 331 334 331 333 330 329 327 329 334 334 336 337 336 337 338 339 340 340 338 337 340 344 345 346 342 343 347 347 343
245 253 258 258 252 258 265 273 274 291 310 315 332 342 329 319 327 315 336 338 328 328 330 327 329 330 332 338 340 341 340 339 339 341 342 342 342 341 339 338 340 346 347 348 347 346 349 350 348
235 232 244 240 249 254 265 270 289 294 297 311 307 334 333 329 320 319 337 335 324 322 322 324 326 334 339 341 340 340 340 341 343 344 344 344 344 343 341 340 341 345 349 351 351 350 351 354 354
235 231 244 239 247 251 261 271 286 289 305 301 298 311 320 331 318 324 335 327 315 316 322 329 333 335 337 332 333 335 339 341 343 344 346 347 346 343 343 342 342 345 350 353 353 354 353 357 359
228 228 248 241 247 256 263 268 278 290 301 314 329 323 319 320 325 331 327 310 307 316 332 339 335 334 331 329 329 335 337 339 342 346 346 348 347 344 343 342 342 344 350 354 355 356 357 358 0
Height
5908 5910 5912 5913 5917 5912 5913 5914 5913 5910 5909 5907 5907 5907 5907 5905 5904 5906 5903 5902 5900 5898 5897 5896 5895 5894 5893 5893 5892 5890 5889 5888 5887 5886 5883 5881 5879 5878 5877 5876 5875 5874 5873 5873 5872 5872 5873 5875 5875
5909 5909 5909 5912 5917 5915 5914 5914 5912 5908 5905 5902 5908 5909 5909 5908 5907 5906 5904 5902 5899 5899 5897 5895 5895 5894 5892 5891 5890 5888 5887 5885 5883 5882 5882 5879 5877 5874 5873 5871 5870 5868 5868 5868 5867 5866 5866 5867 5869
5908 5908 5908 5908 5914 5913 5914 5911 5908 5908 5905 5905 5908 5910 5911 5908 5909 5907 5904 5902 5901 5900 5897 5896 5894 5893 5892 5890 5888 5886 5884 5883 5880 5879 5877 5875 5873 5871 5868 5866 5865 5864 5862 5862 5861 5860 5859 5860 5861
5909 5909 5910 5908 5910 5910 5911 5911 5906 5908 5907 5909 5911 5911 5913 5909 5907 5906 5904 5903 5902 5900 5898 5896 5894 5893 5890 5888 5886 5884 5881 5879 5876 5874 5872 5870 5867 5866 5864 5862 5860 5858 5856 5855 5855 5854 5853 5852 5853
5909 5909 5910 5909 5908 5907 5909 5911 5908 5909 5911 5913 5913 5913 5916 5911 5908 5905 5906 5904 5902 5899 5897 5895 5893 5891 5889 5886 5883 5879 5877 5874 5872 5870 5867 5865 5863 5862 5859 5857 5855 5853 5850 5849 5847 5847 5846 5845 5844
5910 5910 5911 5910 5907 5905 5909 5910 5908 5911 5914 5913 5911 5913 5915 5914 5909 5907 5906 5903 5900 5899 5896 5893 5890 5888 5886 5884 5881 5877 5875 5872 5869 5866 5864 5862 5859 5858 5855 5852 5851 5848 5845 5842 5840 5838 5837 5837 5837
5908 5909 5910 5908 5908 5907 5908 5910 5908 5913 5913 5912 5912 5911 5912 5913 5909 5907 5903 5901 5899 5897 5894 5892 5889 5886 5882 5878 5877 5874 5871 5868 5865 5862 5860 5858 5856 5853 5850 5848 5845 5842 5840 5837 5834 5831 5830 5829 5827
5909 5912 5911 5909 5910 5909 5911 5912 5915 5917 5914 5913 5912 5910 5911 5909 5907 5906 5904 5901 5899 5897 5895 5892 5889 5886 5882 5877 5873 5870 5867 5864 5861 5859 5856 5854 5851 5847 5844 5841 5838 5835 5832 5831 5827 5824 5822 5820 5818
5910 5912 5911 5909 5907 5911 5912 5915 5917 5918 5915 5913 5913 5913 5910 5909 5907 5906 5902 5901 5898 5895 5894 5890 5887 5884 5880 5877 5873 5869 5865 5859 5856 5853 5852 5849 5844 5842 5838 5834 5831 5827 5824 5820 5818 5815 5813 5811 5810
5911 5911 5910 5909 5907 5911 5912 5915 5916 5917 5916 5915 5913 5911 5909 5907 5906 5904 5900 5897 5894 5891 5888 5887 5885 5880 5876 5872 5869 5867 5862 5858 5853 5848 5846 5842 5837 5834 5830 5826 5823 5819 5814 5810 5805 5802 5801 5801 5800
5910 5908 5910 5911 5909 5913 5916 5917 5915 5915 5912 5912 5913 5911 5909 5907 5904 5902 5900 5897 5892 5888 5884 5879 5876 5875 5872 5869 5864 5861 5858 5854 5849 5845 5840 5835 5830 5825 5820 5816 5811 5807 5803 5799 5794 5789 5787 5786 5786
5909 5908 5908 5911 5914 5918 5919 5919 5917 5913 5910 5911 5911 5909 5907 5906 5905 5903 5901 5896 5892 5885 5880 5876 5873 5871 5867 5864 5859 5855 5851 5847 5843 5839 5834 5828 5821 5816 5812 5806 5800 5796 5792 5787 5782 5778 5774 5772 5771
5907 5909 5906 5910 5913 5916 5917 5918 5918 5915 5911 5909 5909 5907 5905 5905 5903 5900 5896 5892 5888 5885 5880 5876 5870 5865 5862 5860 5856 5853 5848 5843 5839 5834 5828 5822 5815 5810 5804 5797 5791 5785 5780 5775 5769 5765 5762 5759 5758
5911 5908 5908 5909 5911 5914 5914 5915 5915 5915 5912 5909 5909 5907 5904 5898 5894 5891 5888 5885 5883 5881 5877 5872 5867 5866 5862 5858 5854 5849 5844 5838 5833 5827 5822 5815 5809 5804 5798 5791 5783 5775 5768 5763 5758 5753 5749 5747 5746
5906 5908 5908 5906 5909 5913 5916 5917 5913 5913 5911 5908 5906 5905 5900 5893 5889 5886 5883 5881 5879 5877 5874 5871 5865 5861 5858 5854 5850 5845 5839 5833 5827 5822 5815 5810 5804 5798 5791 5784 5776 5768 5759 5753 5748 5743 5738 5736 5734
5905 5907 5907 5908 5908 5910 5912 5913 5913 5911 5908 5905 5903 5900 5899 5894 5889 5885 5882 5880 5876 5872 5869 5868 5863 5857 5853 5849 5845 5839 5833 5828 5823 5817 5810 5804 5798 5792 5785 5777 5768 5760 5753 5746 5740 5734 5730 5727 5725
5904 5906 5907 5908 5907 5910 5911 5910 5911 5908 5905 5903 5902 5900 5901 5898 5893 5888 5883 5878 5872 5869 5866 5863 5859 5853 5849 5845 5842 5836 5830 5824 5819 5813 5806 5799 5792 5784 5777 5770 5762 5753 5746 5739 5732 5726 5721 5718 5714
5905 5907 5908 5908 5907 5908 5910 5910 5908 5905 5902 5902 5900 5899 5898 5898 5895 5890 5885 5880 5874 5868 5862 5859 5855 5849 5845 5841 5838 5833 5827 5820 5814 5808 5801 5795 5788 5780 5773 5764 5755 5747 5739 5732 5725 5719 5712 5707 5702
5903 5904 5904 5907 5905 5904 5908 5907 5905 5904 5899 5898 5898 5897 5896 5893 5892 5889 5885 5879 5873 5866 5861 5855 5852 5846 5842 5837 5832 5828 5823 5816 5810 5804 5798 5790 5783 5775 5767 5758 5750 5741 5733 5726 5719 5711 5703 5696 5690
5900 5900 5903 5905 5906 5903 5904 5903 5900 5899 5896 5894 5889 5893 5895 5890 5886 5885 5881 5876 5867 5860 5858 5851 5847 5842 5837 5834 5828 5824 5819 5813 5806 5799 5792 5785 5777 5769 5761 5753 5744 5735 5726 5719 5712 5704 5694 5685 5677
5895 5896 5898 5900 5901 5898 5899 5899 5899 5897 5894 5892 5891 5888 5888 5885 5881 5878 5876 5872 5864 5858 5853 5848 5844 5839 5833 5828 5824 5818 5813 5807 5801 5794 5787 5779 5771 5763 5755 5746 5737 5729 5720 5712 5705 5696 5686 5675 5664
5893 5896 5898 5897 5894 5895 5895 5892 5895 5894 5893 5891 5888 5883 5883 5879 5878 5874 5871 5868 5861 5856 5851 5846 5840 5834 5829 5823 5818 5813 5808 5802 5795 5789 5782 5775 5766 5758 5749 5740 5731 5723 5714 5706 5698 5688 5678 5667 5657
5888 5892 5893 5893 5891 5890 5890 5887 5888 5889 5888 5886 5877 5876 5874 5872 5872 5871 5866 5863 5859 5853 5847 5843 5837 5828 5825 5819 5814 5808 5803 5796 5790 5783 5776 5769 5762 5753 5744 5735 5727 5718 5709 5701 5693 5682 5671 5661 5652
5886 5885 5887 5888 5887 5885 5887 5886 5884 5884 5883 5877 5871 5870 5867 5865 5866 5865 5860 5859 5856 5849 5844 5838 5832 5825 5820 5816 5811 5805 5798 5792 5785 5779 5772 5765 5757 5749 5740 5730 5722 5714 5705 5696 5688 5678 5667 5657 5647
5879 5880 5882 5884 5883 5883 5885 5883 5881 5881 5876 5874 5867 5862 5856 5858 5861 5859 5855 5854 5850 5846 5840 5834 5828 5823 5818 5815 5808 5801 5793 5787 5781 5774 5766 5759 5751 5743 5735 5727 5718 5710 5702 5692 5684 5675 5664 5654 5644
5874 5876 5879 5878 5880 5881 5878 5877 5881 5879 5877 5874 5870 5863 5853 5854 5856 5854 5850 5847 5844 5840 5836 5830 5825 5820 5817 5811 5804 5797 5789 5782 5775 5768 5761 5754 5746 5738 5730 5723 5716 5707 5698 5689 5681 5672 5662 5651 5642
5870 5874 5875 5876 5874 5874 5874 5873 5874 5877 5878 5870 5868 5860 5858 5856 5852 5849 5842 5839 5838 5835 5833 5828 5821 5818 5813 5806 5799 5791 5784 5778 5771 5764 5756 5749 5742 5734 5725 5718 5712 5704 5695 5686 5678 5670 5660 5650 5640
5865 5869 5867 5870 5869 5870 5868 5867 5869 5870 5872 5871 5866 5861 5855 5851 5849 5842 5836 5833 5833 5833 5831 5825 5817 5812 5808 5800 5794 5788 5781 5774 5767 5761 5753 5746 5738 5730 5722 5714 5708 5701 5693 5684 5675 5667 5659 5649 5639
5863 5863 5863 5864 5863 5863 5862 5861 5864 5865 5866 5865 5863 5858 5854 5850 5845 5835 5830 5830 5832 5830 5827 5818 5811 5806 5802 5797 5791 5785 5778 5771 5764 5757 5749 5742 5735 5727 5719 5711 5705 5698 5690 5682 5674 5666 5657 5648 5639
5857 5857 5858 5857 5861 5859 5857 5857 5858 5859 5858 5859 5858 5854 5850 5844 5838 5831 5827 5829 5829 5825 5818 5810 5807 5803 5799 5794 5787 5781 5774 5767 5760 5753 5746 5739 5732 5725 5717 5709 5702 5695 5687 5680 5672 5665 5657 5649 5640